Cumshewa Island, British Columbia

7:56 PM PDT on October 18, 2017 (GMT -0700)
Cumshewa Island

Weather History for CWZL - January, 2013

Change the Weather History Date:

Friday, January 4, 2013

  Actual Average (CYZP) Record (CYZP)
Temperature  
Mean Temperature 43 °F -  
Max Temperature 46 °F 40 °F 51 °F (2012)
Min Temperature 40 °F 33 °F 23 °F (2004)
Degree Days  
Heating Degree Days 22    
Moisture  
Dew Point 40 °F    
Average Humidity 85    
Maximum Humidity 95    
Minimum Humidity 68    
Precipitation  
Precipitation 0.00 in - - ()
Sea Level Pressure  
Sea Level Pressure 29.96 in    
Wind  
Wind Speed 16 mph ()    
Max Wind Speed 39 mph    
Max Gust Speed -    
Averages and records for this station are not official NWS values.
T = Trace of Precipitation, MM = Missing Value Source: Averaged Metar Reports

Daily Weather History Graph

Daily Weather History Graph

Search for Another Location

Airport or City:

Trip Planner

Search our weather history database for the weather conditions in past years. The results will help you decide how hot, cold, wet, or windy it might be!

Date:

Astronomy

Jan. 04, 2013 Rise Set
Actual Time 8:59 AM PST 4:44 PM PST
Civil Twilight 8:17 AM PST 5:26 PM PST
Nautical Twilight 7:32 AM PST 6:10 PM PST
Astronomical Twilight 6:50 AM PST 6:52 PM PST
Moon 12:27 AM PST (1/4) 11:39 AM PST (1/4)
Length of Visible Light 9h 08m
Length of Day
7h 45m
Waning Gibbous, 54% of the Moon is Illuminated
Jan 4
Waning Gibbous
Jan 4
Last Quarter
Jan 11
New
Jan 18
First Quarter
Jan 26
Full

Hourly Weather History & Observations

Time (PST) Temp. Windchill Dew Point Humidity Pressure Visibility Wind Dir Wind Speed Gust Speed Precip Events Conditions
1:00 AM 41.4 °F 35.7 °F 37.0 °F 85% 29.91 in - West 9.2 mph - N/A   Unknown
2:00 AM 41.9 °F - 36.3 °F 81% 29.93 in - NNE 2.3 mph - N/A   Unknown
3:00 AM 40.6 °F - 37.2 °F 88% 29.97 in - West 2.3 mph - N/A   Unknown
4:00 AM 40 °F - 38 °F 88% 30.00 in - WSW 4.6 mph - -  
4:00 AM 40.5 °F 37.3 °F 37.8 °F 90% 30.00 in - WSW 4.6 mph - N/A   Unknown
5:00 AM 40.5 °F - 38.1 °F 91% 30.01 in - SW 1.2 mph - N/A   Unknown
6:00 AM 43.3 °F 38.6 °F 40.3 °F 89% 30.02 in - South 8.1 mph - N/A   Unknown
7:00 AM 43.3 °F 37.2 °F 40.1 °F 88% 30.04 in - South 11.5 mph - N/A   Unknown
8:00 AM 44.2 °F 37.6 °F 39.4 °F 83% 30.04 in - South 13.8 mph - N/A   Unknown
9:00 AM 45.0 °F 36.6 °F 37.6 °F 75% 30.04 in - South 21.9 mph - N/A   Unknown
10:00 AM 45 °F - 38 °F 68% 30.05 in - South 20.7 mph - -  
10:00 AM 44.8 °F 36.6 °F 37.9 °F 77% 30.05 in - South 20.7 mph - N/A   Unknown
11:00 AM 45.1 °F 36.0 °F 39.2 °F 80% 30.05 in - South 26.5 mph - N/A   Unknown
12:00 PM 45.5 °F 36.5 °F 39.2 °F 79% 30.04 in - South 26.5 mph - N/A   Unknown
1:00 PM 46.0 °F 36.5 °F 40.1 °F 80% 30.02 in - SSE 31.1 mph - N/A   Unknown
2:00 PM 46.4 °F 36.5 °F 39.6 °F 77% 29.99 in - SSE 34.5 mph - N/A   Unknown
3:00 PM 46.0 °F 35.8 °F 39.9 °F 79% 29.96 in - SSE 36.8 mph - N/A   Unknown
4:00 PM 46 °F - 41 °F 77% 29.96 in - SSE 33.4 mph - -  
4:00 PM 46.0 °F 36.2 °F 41.0 °F 83% 29.96 in - SSE 33.4 mph - N/A   Unknown
5:00 PM 45.5 °F 35.5 °F 43.2 °F 92% 29.95 in - SSE 33.4 mph - N/A   Unknown
6:00 PM 45.1 °F 34.8 °F 43.7 °F 95% 29.90 in - SE 34.5 mph - N/A   Unknown
7:00 PM 45.3 °F 34.6 °F 43.9 °F 95% 29.87 in - SSE 38.0 mph - N/A   Unknown
8:00 PM 45.7 °F 35.3 °F 44.1 °F 94% 29.85 in - SSE 36.8 mph - N/A   Unknown
9:00 PM 45.9 °F 35.4 °F 43.9 °F 93% 29.83 in - SSE 38.0 mph - N/A   Unknown
10:00 PM 46 °F - 44 °F 90% 29.82 in - SSE 38.0 mph - -  
10:00 PM 46.2 °F 35.9 °F 44.1 °F 92% 29.82 in - SSE 38.0 mph - N/A   Unknown
11:00 PM 46.4 °F 36.0 °F 43.7 °F 90% 29.80 in - SSE 39.1 mph - N/A   Unknown